Time,TemperatureF,DewpointF,PressureIn,WindDirection,WindDirectionDegrees,WindSpeedMPH,WindSpeedGustMPH,Humidity,HourlyPrecipIn,Conditions,Clouds,dailyrainin,SolarRadiationWatts/m^2,SoftwareType,DateUTC
2013-08-07 00:01:00,65.0,62.0,30.03,SW,226,0.0,0.0,89,0.00,,,0.00,0.000000,,2013-08-07 04:01:00,
2013-08-07 00:11:00,65.0,62.0,30.03,SW,226,0.0,0.0,89,0.00,,,0.00,0.000000,,2013-08-07 04:11:00,
2013-08-07 00:21:00,65.0,62.0,30.04,SW,226,0.0,0.0,89,0.00,,,0.00,0.000000,,2013-08-07 04:21:00,
2013-08-07 00:33:00,65.0,62.0,30.04,SW,226,0.0,0.0,89,0.00,,,0.00,0.000000,,2013-08-07 04:33:00,
2013-08-07 00:43:00,65.0,62.0,30.03,SW,226,0.0,0.0,89,0.00,,,0.00,0.000000,,2013-08-07 04:43:00,
2013-08-07 00:52:00,64.0,61.0,30.03,SW,226,0.0,0.0,89,0.00,,,0.00,0.000000,,2013-08-07 04:52:00,
2013-08-07 01:02:00,64.0,61.0,30.03,SW,226,0.0,0.0,90,0.00,,,0.00,0.000000,,2013-08-07 05:02:00,
2013-08-07 01:11:00,64.0,61.0,30.03,SW,226,0.0,0.0,90,0.00,,,0.00,0.000000,,2013-08-07 05:11:00,
2013-08-07 01:22:00,64.0,61.0,30.04,SW,226,0.0,0.0,90,0.00,,,0.00,0.000000,,2013-08-07 05:22:00,
2013-08-07 01:32:00,64.0,61.0,30.04,SW,226,0.0,0.0,91,0.00,,,0.00,0.000000,,2013-08-07 05:32:00,
2013-08-07 01:43:00,64.0,61.0,30.04,SW,226,0.0,0.0,91,0.00,,,0.00,0.000000,,2013-08-07 05:43:00,
2013-08-07 01:52:00,64.0,61.0,30.04,SW,219,0.0,3.0,91,0.00,,,0.00,0.000000,,2013-08-07 05:52:00,
2013-08-07 02:02:00,64.0,61.0,30.04,SW,219,0.0,0.0,90,0.00,,,0.00,0.000000,,2013-08-07 06:02:00,
2013-08-07 02:11:00,64.0,61.0,30.04,SW,219,0.0,0.0,90,0.00,,,0.00,0.000000,,2013-08-07 06:11:00,
2013-08-07 02:22:00,64.0,61.0,30.03,South,174,0.0,1.0,90,0.00,,,0.00,0.000000,,2013-08-07 06:22:00,
2013-08-07 02:32:00,64.0,61.0,30.03,South,174,0.0,0.0,90,0.00,,,0.00,0.000000,,2013-08-07 06:32:00,
2013-08-07 02:43:00,64.0,61.0,30.03,South,174,0.0,0.0,90,0.00,,,0.00,0.000000,,2013-08-07 06:43:00,
2013-08-07 02:52:00,64.0,61.0,30.03,South,174,0.0,0.0,90,0.00,,,0.00,0.000000,,2013-08-07 06:52:00,
2013-08-07 03:01:00,64.0,61.0,30.03,South,174,0.0,0.0,90,0.00,,,0.00,0.000000,,2013-08-07 07:01:00,
2013-08-07 03:12:00,64.0,61.0,30.03,South,174,0.0,0.0,90,0.00,,,0.00,0.000000,,2013-08-07 07:12:00,
2013-08-07 03:22:00,63.0,60.0,30.03,South,174,0.0,0.0,89,0.00,,,0.00,0.000000,,2013-08-07 07:22:00,
2013-08-07 03:43:00,63.0,60.0,30.03,South,174,0.0,0.0,90,0.00,,,0.00,0.000000,,2013-08-07 07:43:00,
2013-08-07 03:53:00,63.0,60.0,30.03,South,174,0.0,0.0,91,0.00,,,0.00,0.000000,,2013-08-07 07:53:00,
2013-08-07 04:02:00,63.0,60.0,30.03,South,174,0.0,0.0,91,0.00,,,0.00,0.000000,,2013-08-07 08:02:00,
2013-08-07 04:11:00,63.0,61.0,30.03,South,174,0.0,0.0,92,0.00,,,0.00,0.000000,,2013-08-07 08:11:00,
2013-08-07 04:22:00,63.0,61.0,30.03,South,174,0.0,0.0,92,0.00,,,0.00,0.000000,,2013-08-07 08:22:00,
2013-08-07 04:44:00,63.0,61.0,30.03,South,174,0.0,1.0,92,0.00,,,0.00,0.000000,,2013-08-07 08:44:00,
2013-08-07 04:53:00,63.0,61.0,30.04,SSE,148,0.0,1.0,93,0.00,,,0.00,0.000000,,2013-08-07 08:53:00,
2013-08-07 05:02:00,63.0,61.0,30.03,SSE,148,0.0,0.0,93,0.00,,,0.00,0.000000,,2013-08-07 09:02:00,
2013-08-07 05:12:00,63.0,61.0,30.03,SSE,148,0.0,0.0,93,0.00,,,0.00,0.000000,,2013-08-07 09:12:00,
2013-08-07 05:22:00,63.0,61.0,30.03,SSE,148,0.0,1.0,93,0.00,,,0.00,0.000000,,2013-08-07 09:22:00,
2013-08-07 05:43:00,63.0,61.0,30.04,SSE,148,0.0,2.0,93,0.00,,,0.00,0.000000,,2013-08-07 09:43:00,
2013-08-07 05:54:00,63.0,61.0,30.04,SSE,148,0.0,0.0,93,0.00,,,0.00,0.000000,,2013-08-07 09:54:00,
2013-08-07 06:01:00,64.0,62.0,30.04,SSE,148,0.0,0.0,93,0.00,,,0.00,0.000000,,2013-08-07 10:01:00,
2013-08-07 06:11:00,64.0,62.0,30.04,SSE,148,0.0,0.0,93,0.00,,,0.00,0.000000,,2013-08-07 10:11:00,
2013-08-07 06:22:00,64.0,62.0,30.05,SSE,148,0.0,0.0,93,0.00,,,0.00,0.000000,,2013-08-07 10:22:00,
2013-08-07 06:32:00,64.0,62.0,30.05,SSE,148,0.0,0.0,93,0.00,,,0.00,0.000000,,2013-08-07 10:32:00,
2013-08-07 06:43:00,64.0,62.0,30.05,SSE,148,0.0,0.0,93,0.00,,,0.00,0.000000,,2013-08-07 10:43:00,
2013-08-07 06:52:00,64.0,62.0,30.04,SSE,148,0.0,0.0,93,0.00,,,0.00,7.000000,,2013-08-07 10:52:00,
2013-08-07 07:01:00,64.0,62.0,30.04,SSE,148,0.0,1.0,93,0.00,,,0.00,19.000000,,2013-08-07 11:01:00,
2013-08-07 07:11:00,64.0,62.0,30.04,SSE,148,0.0,1.0,93,0.00,,,0.00,19.000000,,2013-08-07 11:11:00,
2013-08-07 07:22:00,64.0,62.0,30.05,SSE,147,0.0,3.0,93,0.00,,,0.00,12.000000,,2013-08-07 11:22:00,
2013-08-07 07:32:00,64.0,62.0,30.05,SSE,147,0.0,3.0,93,0.00,,,0.00,12.000000,,2013-08-07 11:32:00,
2013-08-07 07:43:00,64.0,62.0,30.05,SSE,148,0.0,3.0,93,0.00,,,0.00,16.000000,,2013-08-07 11:43:00,
2013-08-07 07:53:00,64.0,62.0,30.05,SSE,148,0.0,1.0,93,0.00,,,0.00,30.000000,,2013-08-07 11:53:00,
2013-08-07 08:02:00,64.0,62.0,30.04,SE,136,0.0,4.0,93,0.00,,,0.00,70.000000,,2013-08-07 12:02:00,
2013-08-07 08:11:00,64.0,62.0,30.04,SE,136,0.0,4.0,93,0.00,,,0.00,70.000000,,2013-08-07 12:11:00,
2013-08-07 08:22:00,65.0,63.0,30.04,SE,142,0.0,3.0,93,0.00,,,0.00,163.000000,,2013-08-07 12:22:00,
2013-08-07 08:33:00,65.0,63.0,30.04,SE,142,0.0,3.0,93,0.00,,,0.00,163.000000,,2013-08-07 12:33:00,
2013-08-07 08:43:00,66.0,63.0,30.04,ESE,111,0.0,3.0,91,0.00,,,0.00,60.000000,,2013-08-07 12:43:00,
2013-08-07 08:52:00,66.0,63.0,30.04,SE,131,0.0,3.0,90,0.00,,,0.00,102.000000,,2013-08-07 12:52:00,
2013-08-07 09:02:00,66.0,63.0,30.04,SE,130,0.0,4.0,89,0.00,,,0.00,93.000000,,2013-08-07 13:02:00,
2013-08-07 09:12:00,66.0,63.0,30.04,SE,130,0.0,4.0,89,0.00,,,0.00,93.000000,,2013-08-07 13:12:00,
2013-08-07 09:22:00,67.0,63.0,30.04,SSE,148,0.0,4.0,88,0.00,,,0.00,104.000000,,2013-08-07 13:22:00,
2013-08-07 09:32:00,67.0,63.0,30.04,SSE,157,0.0,4.0,88,0.00,,,0.00,77.000000,,2013-08-07 13:32:00,
2013-08-07 09:44:00,67.0,63.0,30.04,SSE,157,0.0,4.0,88,0.00,,,0.00,77.000000,,2013-08-07 13:44:00,
2013-08-07 09:53:00,67.0,63.0,30.04,South,182,0.0,4.0,88,0.00,,,0.00,123.000000,,2013-08-07 13:53:00,
2013-08-07 10:02:00,67.0,64.0,30.04,South,188,0.0,3.0,89,0.00,,,0.00,77.000000,,2013-08-07 14:02:00,
2013-08-07 10:12:00,67.0,64.0,30.04,South,188,0.0,3.0,89,0.00,,,0.00,77.000000,,2013-08-07 14:12:00,
2013-08-07 10:22:00,67.0,64.0,30.04,SE,144,0.0,4.0,89,0.00,,,0.00,165.000000,,2013-08-07 14:22:00,
2013-08-07 10:33:00,68.0,65.0,30.04,East,94,1.0,5.0,90,0.00,,,0.00,279.000000,,2013-08-07 14:33:00,
2013-08-07 10:43:00,68.0,65.0,30.04,East,94,1.0,5.0,90,0.00,,,0.00,279.000000,,2013-08-07 14:43:00,
2013-08-07 11:02:00,70.0,66.0,30.04,South,190,0.0,4.0,86,0.00,,,0.00,271.000000,,2013-08-07 15:02:00,
2013-08-07 11:13:00,70.0,66.0,30.04,South,190,0.0,4.0,86,0.00,,,0.00,271.000000,,2013-08-07 15:13:00,
2013-08-07 11:22:00,71.0,66.0,30.04,SW,218,0.0,4.0,84,0.00,,,0.00,343.000000,,2013-08-07 15:22:00,
2013-08-07 11:33:00,71.0,66.0,30.04,SW,218,0.0,4.0,84,0.00,,,0.00,343.000000,,2013-08-07 15:33:00,
2013-08-07 11:43:00,71.0,66.0,30.03,SE,138,1.0,7.0,83,0.00,,,0.00,355.000000,,2013-08-07 15:43:00,
2013-08-07 11:53:00,71.0,65.0,30.04,South,190,0.0,5.0,82,0.00,,,0.00,287.000000,,2013-08-07 15:53:00,
2013-08-07 12:02:00,72.0,66.0,30.04,NNW,343,0.0,8.0,81,0.00,,,0.00,234.000000,,2013-08-07 16:02:00,
2013-08-07 12:11:00,72.0,66.0,30.04,NNW,343,0.0,8.0,81,0.00,,,0.00,234.000000,,2013-08-07 16:11:00,
2013-08-07 12:43:00,71.0,65.0,30.03,SE,139,0.0,6.0,82,0.00,,,0.00,260.000000,,2013-08-07 16:43:00,
2013-08-07 12:53:00,72.0,66.0,30.03,SSE,150,1.0,4.0,82,0.00,,,0.00,492.000000,,2013-08-07 16:53:00,
2013-08-07 13:02:00,73.0,66.0,30.03,SSE,163,2.0,8.0,78,0.00,,,0.00,462.000000,,2013-08-07 17:02:00,
2013-08-07 13:11:00,73.0,66.0,30.03,SSE,163,2.0,8.0,78,0.00,,,0.00,462.000000,,2013-08-07 17:11:00,
2013-08-07 13:23:00,73.0,66.0,30.03,East,94,1.0,7.0,78,0.00,,,0.00,373.000000,,2013-08-07 17:23:00,
2013-08-07 13:33:00,74.0,67.0,30.02,SW,227,0.0,6.0,78,0.00,,,0.00,336.000000,,2013-08-07 17:33:00,
2013-08-07 13:43:00,74.0,67.0,30.02,SW,227,0.0,6.0,78,0.00,,,0.00,336.000000,,2013-08-07 17:43:00,
2013-08-07 13:52:00,76.0,67.0,30.02,WSW,238,0.0,6.0,74,0.00,,,0.00,357.000000,,2013-08-07 17:52:00,
2013-08-07 14:02:00,76.0,67.0,30.01,ESE,102,1.0,5.0,74,0.00,,,0.00,265.000000,,2013-08-07 18:02:00,
2013-08-07 14:12:00,76.0,67.0,30.01,ESE,102,1.0,5.0,74,0.00,,,0.00,265.000000,,2013-08-07 18:12:00,
2013-08-07 14:22:00,76.0,68.0,30.01,East,94,0.0,5.0,76,0.00,,,0.00,264.000000,,2013-08-07 18:22:00,
2013-08-07 14:32:00,76.0,68.0,30.01,East,94,0.0,5.0,76,0.00,,,0.00,264.000000,,2013-08-07 18:32:00,
2013-08-07 14:43:00,75.0,67.0,30.01,ENE,65,1.0,6.0,75,0.00,,,0.00,186.000000,,2013-08-07 18:43:00,
2013-08-07 14:52:00,74.0,66.0,30.01,SSE,148,0.0,4.0,77,0.00,,,0.00,144.000000,,2013-08-07 18:52:00,
2013-08-07 15:01:00,74.0,67.0,30.01,South,173,0.0,6.0,78,0.00,,,0.00,294.000000,,2013-08-07 19:01:00,
2013-08-07 15:11:00,74.0,67.0,30.01,South,173,0.0,6.0,78,0.00,,,0.00,294.000000,,2013-08-07 19:11:00,
2013-08-07 15:22:00,75.0,67.0,30.00,SSE,168,0.0,5.0,77,0.00,,,0.00,141.000000,,2013-08-07 19:22:00,
2013-08-07 15:32:00,75.0,67.0,30.00,SSE,168,0.0,5.0,77,0.00,,,0.00,141.000000,,2013-08-07 19:32:00,
2013-08-07 15:44:00,75.0,67.0,30.00,ESE,117,0.0,5.0,77,0.00,,,0.00,155.000000,,2013-08-07 19:44:00,
2013-08-07 15:53:00,74.0,66.0,30.00,SE,135,0.0,7.0,77,0.00,,,0.00,83.000000,,2013-08-07 19:53:00,
2013-08-07 16:02:00,73.0,67.0,30.01,South,182,0.0,5.0,82,0.03,,,0.03,32.000000,,2013-08-07 20:02:00,
2013-08-07 16:11:00,73.0,67.0,30.01,South,182,0.0,5.0,82,0.03,,,0.03,32.000000,,2013-08-07 20:11:00,
2013-08-07 16:22:00,71.0,67.0,30.00,SE,144,0.0,4.0,87,0.10,,,0.10,163.000000,,2013-08-07 20:22:00,
2013-08-07 16:43:00,71.0,68.0,29.99,SE,144,0.0,1.0,90,0.10,,,0.10,218.000000,,2013-08-07 20:43:00,
2013-08-07 16:52:00,71.0,68.0,29.99,SE,128,0.0,4.0,90,0.10,,,0.10,134.000000,,2013-08-07 20:52:00,
2013-08-07 17:01:00,71.0,68.0,29.99,SE,128,0.0,1.0,91,0.07,,,0.10,53.000000,,2013-08-07 21:01:00,
2013-08-07 17:11:00,71.0,68.0,29.99,SE,128,0.0,1.0,91,0.07,,,0.10,53.000000,,2013-08-07 21:11:00,
2013-08-07 17:22:00,71.0,68.0,29.98,SE,128,0.0,1.0,91,0.00,,,0.10,83.000000,,2013-08-07 21:22:00,
2013-08-07 17:32:00,71.0,68.0,29.99,SE,128,0.0,1.0,91,0.00,,,0.10,49.000000,,2013-08-07 21:32:00,
2013-08-07 17:43:00,71.0,68.0,29.99,SE,128,0.0,1.0,91,0.00,,,0.10,49.000000,,2013-08-07 21:43:00,
2013-08-07 17:52:00,70.0,67.0,29.98,SE,128,0.0,4.0,91,0.01,,,0.11,19.000000,,2013-08-07 21:52:00,
2013-08-07 18:01:00,70.0,67.0,29.98,SE,128,0.0,4.0,91,0.01,,,0.11,19.000000,,2013-08-07 22:01:00,
2013-08-07 18:12:00,70.0,68.0,29.98,SE,130,0.0,1.0,92,0.12,,,0.22,127.000000,,2013-08-07 22:12:00,
2013-08-07 18:32:00,70.0,68.0,29.98,SSE,159,1.0,7.0,92,0.12,,,0.22,51.000000,,2013-08-07 22:32:00,
2013-08-07 18:43:00,70.0,68.0,29.98,SSE,161,0.0,4.0,93,0.12,,,0.22,44.000000,,2013-08-07 22:43:00,
2013-08-07 18:52:00,69.0,67.0,29.97,SSW,194,0.0,2.0,93,0.11,,,0.22,44.000000,,2013-08-07 22:52:00,
2013-08-07 19:01:00,69.0,67.0,29.98,SSW,194,0.0,3.0,93,0.00,,,0.22,7.000000,,2013-08-07 23:01:00,
2013-08-07 19:11:00,69.0,67.0,29.98,SSW,194,0.0,3.0,93,0.00,,,0.22,7.000000,,2013-08-07 23:11:00,
2013-08-07 19:22:00,69.0,67.0,29.98,SSW,192,0.0,1.0,93,0.00,,,0.22,5.000000,,2013-08-07 23:22:00,
2013-08-07 19:32:00,69.0,67.0,29.97,South,187,0.0,2.0,94,0.00,,,0.22,32.000000,,2013-08-07 23:32:00,
2013-08-07 19:43:00,69.0,67.0,29.97,South,187,0.0,2.0,94,0.00,,,0.22,32.000000,,2013-08-07 23:43:00,
2013-08-07 19:52:00,69.0,67.0,29.97,South,185,0.0,4.0,94,0.00,,,0.22,9.000000,,2013-08-07 23:52:00,
2013-08-07 20:01:00,69.0,67.0,29.97,South,183,0.0,3.0,94,0.00,,,0.22,0.000000,,2013-08-08 00:01:00,
2013-08-07 20:11:00,69.0,67.0,29.97,South,183,0.0,3.0,94,0.00,,,0.22,0.000000,,2013-08-08 00:11:00,
2013-08-07 20:22:00,69.0,67.0,29.97,SSE,161,0.0,4.0,94,0.00,,,0.22,0.000000,,2013-08-08 00:22:00,
2013-08-07 20:32:00,69.0,67.0,29.97,SSE,161,0.0,4.0,94,0.00,,,0.22,0.000000,,2013-08-08 00:32:00,
2013-08-07 20:43:00,69.0,67.0,29.97,SSE,167,0.0,3.0,94,0.00,,,0.22,0.000000,,2013-08-08 00:43:00,
2013-08-07 20:53:00,68.0,67.0,29.98,SSE,168,0.0,3.0,95,0.00,,,0.22,0.000000,,2013-08-08 00:53:00,
2013-08-07 21:02:00,68.0,67.0,29.98,SSE,168,0.0,3.0,95,0.00,,,0.22,0.000000,,2013-08-08 01:02:00,
2013-08-07 21:11:00,68.0,66.0,29.98,SSE,147,0.0,4.0,94,0.01,,,0.23,0.000000,,2013-08-08 01:11:00,
2013-08-07 21:22:00,68.0,66.0,29.98,SSE,147,0.0,4.0,94,0.01,,,0.23,0.000000,,2013-08-08 01:22:00,
2013-08-07 21:32:00,68.0,66.0,29.98,ESE,123,0.0,4.0,94,0.01,,,0.23,0.000000,,2013-08-08 01:32:00,
2013-08-07 21:43:00,68.0,67.0,29.99,SE,125,0.0,-999.0,95,-99.99,,,-99.99,0.000000,,2013-08-08 01:43:00,
2013-08-07 21:52:00,68.0,67.0,29.99,SE,125,0.0,-999.0,95,-99.99,,,-99.99,0.000000,,2013-08-08 01:52:00,
2013-08-07 22:02:00,68.0,67.0,29.99,SE,129,0.0,2.0,95,0.00,,,0.23,0.000000,,2013-08-08 02:02:00,
2013-08-07 22:11:00,68.0,67.0,29.99,SE,129,0.0,2.0,95,0.00,,,0.23,0.000000,,2013-08-08 02:11:00,
2013-08-07 22:22:00,68.0,67.0,29.99,SW,221,0.0,5.0,95,0.00,,,0.23,0.000000,,2013-08-08 02:22:00,
2013-08-07 22:32:00,68.0,67.0,29.99,SE,143,0.0,6.0,95,0.00,,,0.23,0.000000,,2013-08-08 02:32:00,
2013-08-07 22:43:00,68.0,67.0,29.99,SE,143,0.0,6.0,95,0.00,,,0.23,0.000000,,2013-08-08 02:43:00,
2013-08-07 22:52:00,68.0,67.0,29.99,SE,126,0.0,3.0,95,0.00,,,0.23,0.000000,,2013-08-08 02:52:00,
2013-08-07 23:02:00,68.0,67.0,29.98,ESE,108,0.0,4.0,95,0.00,,,0.23,0.000000,,2013-08-08 03:02:00,
2013-08-07 23:12:00,68.0,67.0,29.98,ESE,108,0.0,4.0,95,0.00,,,0.23,0.000000,,2013-08-08 03:12:00,
2013-08-07 23:22:00,68.0,67.0,29.98,ESE,121,0.0,4.0,95,0.00,,,0.23,0.000000,,2013-08-08 03:22:00,
2013-08-07 23:32:00,68.0,67.0,29.98,ESE,121,0.0,4.0,95,0.00,,,0.23,0.000000,,2013-08-08 03:32:00,
2013-08-07 23:43:00,68.0,67.0,29.98,SE,135,1.0,6.0,96,0.00,,,0.23,0.000000,,2013-08-08 03:43:00,
2013-08-07 23:52:00,68.0,67.0,29.98,SE,135,1.0,6.0,96,0.00,,,0.23,0.000000,,2013-08-08 03:52:00,